Regional Weather Roundup
Issued by NWS

Current Version | Previous Version | Text Only | Print | Product List | Glossary On
Versions: 1 2 3 4 5 6 7 8 9 10 11 12 13 14 15 16 17 18 19 20 21 22 23 24 25 26 27 28 29 30 31 32 33 34 35 36 37 38 39 40 41 42 43 44 45 46 47 48 49 50
000
ASUS44 KBMX 210410
RWRAL

ALABAMA REGIONAL WEATHER ROUNDUP
NATIONAL WEATHER SERVICE BIRMINGHAM AL
1100 PM CDT WED AUG 20 2014

NOTE: "FAIR" INDICATES FEW OR NO CLOUDS BELOW 12,000 FEET
WITH NO SIGNIFICANT WEATHER AND/OR OBSTRUCTIONS TO VISIBILITY.

THE REMARK "TC" DENOTES TEMPERATURE IN DEGREES CELSIUS.

ALZ001>011-014-016>018-020-210500-
NORTH ALABAMA

CITY           SKY/WX    TMP DP  RH WIND       PRES   REMARKS
MUSCLE SHOALS  CLEAR     76  72  87 CALM      30.10S
HUNTSVILLE     CLEAR     79  73  82 SE6       30.11R
DECATUR        CLEAR     76  74  93 E7        30.11R
HALEYVILLE     FAIR      74  74 100 CALM      30.15R
GADSDEN        MOCLDY    75  66  73 CALM      30.14S
$$

ALZ012-013-022-023-030>036-040>044-210500-
WEST CENTRAL ALABAMA

CITY           SKY/WX    TMP DP  RH WIND       PRES   REMARKS
TUSCALOOSA     PTCLDY    78  74  87 CALM      30.08F
$$

ALZ015-024>027-033>036-040>044-210500-
CENTRAL ALABAMA

CITY           SKY/WX    TMP DP  RH WIND       PRES   REMARKS
BIRMINGHAM     PTCLDY    82  73  74 CALM      30.14R
MONTGOMERY     CLEAR     81  75  82 S5        30.11R
SHELBY CO ARPT CLEAR     79  73  82 CALM      30.12R
MAXWELL AFB    CLEAR     80  77  91 SW2       30.11R
GREENVILLE     FAIR      78  75  90 CALM      30.12R
$$

ALZ019-021-028-029-037-038-045>048-210500-
EAST CENTRAL ALABAMA

CITY           SKY/WX    TMP DP  RH WIND       PRES   REMARKS
ANNISTON       CLOUDY    72  68  87 NE3       30.16R
ALEXANDER CITY MOCLDY    78  73  83 CALM      30.15R
AUBURN         MOCLDY    75  68  78 CALM      30.17R
$$

ALZ051>064-210500-
SOUTHWEST ALABAMA

CITY           SKY/WX    TMP DP  RH WIND       PRES   REMARKS
MOBILE         CLEAR     78  76  93 CALM      30.11F
BROOKLEY FIELD CLEAR     78  76  93 CALM      30.12R
EVERGREEN      CLEAR     77  74  90 CALM      30.12R
$$

ALZ049-050-065>069-210500-
SOUTHEAST ALABAMA

CITY           SKY/WX    TMP DP  RH WIND       PRES   REMARKS
DOTHAN         CLEAR     77  73  87 W5        30.14S
OZARK          CLEAR     76  73  91 W3        30.11S
TROY           CLEAR     76  73  91 CALM      30.13R
EUFAULA        FAIR      78  74  87 CALM      30.11R
$$



USA.gov is the U.S. government's official web portal to all federal, state and local government web resources and services.